TimeMST,TemperatureF,Dew PointF,Humidity,Sea Level PressureIn,VisibilityMPH,Wind Direction,Wind SpeedMPH,Gust SpeedMPH,PrecipitationIn,Events,Conditions,WindDirDegrees,DateUTC
12:55 AM,1.9,-0.9,88,30.10,10.0,North,9.2,-,N/A,,Mostly Cloudy,360,2012-12-31 07:55:00
1:55 AM,9.0,5.0,84,30.09,10.0,Calm,Calm,-,N/A,,Mostly Cloudy,0,2012-12-31 08:55:00
2:55 AM,9.0,5.0,84,30.08,10.0,Calm,Calm,-,N/A,,Overcast,0,2012-12-31 09:55:00
3:55 AM,14.0,10.0,84,30.07,10.0,Calm,Calm,-,N/A,,Overcast,0,2012-12-31 10:55:00
4:55 AM,14.0,10.0,84,30.06,10.0,NE,4.6,-,N/A,,Overcast,40,2012-12-31 11:55:00
5:43 AM,12.2,12.2,100,29.92,10.0,Calm,Calm,-,N/A,,Overcast,0,2012-12-31 12:43:00
5:52 AM,12.2,12.2,100,29.91,10.0,Calm,Calm,-,N/A,,Overcast,0,2012-12-31 12:52:00
5:55 AM,12.9,12.9,100,30.06,10.0,Calm,Calm,-,N/A,,Overcast,0,2012-12-31 12:55:00
6:55 AM,14.0,12.9,95,30.08,10.0,Calm,Calm,-,N/A,,Overcast,0,2012-12-31 13:55:00
7:55 AM,14.0,12.9,95,30.09,10.0,North,5.8,-,N/A,,Overcast,360,2012-12-31 14:55:00
8:55 AM,14.0,12.9,95,30.11,10.0,North,4.6,-,N/A,,Overcast,360,2012-12-31 15:55:00
9:16 AM,15.8,12.2,86,29.95,10.0,North,3.5,-,N/A,,Overcast,10,2012-12-31 16:16:00
9:55 AM,16.0,14.0,92,30.15,10.0,NE,9.2,-,N/A,,Mostly Cloudy,40,2012-12-31 16:55:00
10:28 AM,15.8,14.0,93,29.96,10.0,NNE,6.9,-,N/A,,Scattered Clouds,30,2012-12-31 17:28:00
10:55 AM,16.0,12.9,88,30.15,10.0,NNE,6.9,-,N/A,,Scattered Clouds,30,2012-12-31 17:55:00
11:16 AM,15.8,12.2,86,29.95,10.0,North,4.6,-,N/A,,Mostly Cloudy,10,2012-12-31 18:16:00
11:55 AM,18.0,12.9,81,30.13,10.0,NNE,9.2,-,N/A,,Mostly Cloudy,20,2012-12-31 18:55:00
12:06 PM,19.4,14.0,80,29.93,10.0,NE,4.6,-,N/A,,Mostly Cloudy,40,2012-12-31 19:06:00
12:55 PM,19.0,14.0,81,30.10,10.0,North,10.4,-,N/A,,Overcast,360,2012-12-31 19:55:00
1:55 PM,19.9,15.1,81,30.07,10.0,North,9.2,-,N/A,,Overcast,350,2012-12-31 20:55:00
2:18 PM,19.4,15.8,86,29.92,10.0,North,8.1,-,0.00,Snow,Light Snow,350,2012-12-31 21:18:00
2:55 PM,19.9,15.1,81,30.09,9.0,North,8.1,-,0.00,Snow,Light Snow,360,2012-12-31 21:55:00
3:55 PM,19.0,14.0,81,30.08,10.0,North,9.2,-,N/A,,Overcast,350,2012-12-31 22:55:00
4:55 PM,14.0,10.9,88,30.11,10.0,NNW,6.9,-,N/A,,Mostly Cloudy,340,2012-12-31 23:55:00
5:55 PM,9.0,6.1,88,30.15,10.0,Calm,Calm,-,N/A,,Mostly Cloudy,0,2013-01-01 00:55:00
6:55 PM,7.0,5.0,92,30.17,10.0,Calm,Calm,-,N/A,,Mostly Cloudy,0,2013-01-01 01:55:00
8:55 PM,7.0,5.0,92,30.20,10.0,Calm,Calm,-,N/A,,Mostly Cloudy,0,2013-01-01 03:55:00
9:14 PM,6.8,5.0,92,30.01,10.0,West,3.5,-,N/A,,Overcast,280,2013-01-01 04:14:00
9:26 PM,6.8,5.0,92,30.01,10.0,Calm,Calm,-,N/A,,Overcast,0,2013-01-01 04:26:00
9:55 PM,9.0,7.0,92,30.21,10.0,NW,3.5,-,N/A,,Mostly Cloudy,320,2013-01-01 04:55:00
10:12 PM,8.6,6.8,92,30.02,10.0,Calm,Calm,-,N/A,,Overcast,0,2013-01-01 05:12:00
10:55 PM,6.1,3.9,91,30.22,10.0,NNW,3.5,-,0.00,,Overcast,330,2013-01-01 05:55:00
11:02 PM,5.0,3.2,92,30.02,10.0,Calm,Calm,-,N/A,,Overcast,0,2013-01-01 06:02:00
11:55 PM,-2.0,-2.9,96,30.24,10.0,Calm,Calm,-,N/A,,Clear,0,2013-01-01 06:55:00